Погода Пушкинские Горы

Хотите узнать прогноз погоды Пушкинские Горы? Тогда Вам сюда: Погода Пушкинские Горы

Поиск расширенной информации на нашем сайте:

Полезная информация:

Новости сайта



02.01.2020
Опубликован Долгосрочный прогноз погоды по городам России и ближнего зарубежья на январь 2020 года.
Карты: Прогноз на январь и февраль 2020 года, Сравнение прогнозируемой аномалии приземной температуры воздуха на январь 2020 года по разным моделям.




Погода Пушкинские Горы - сегодня

Время (UTC), дата Ветер
(°,м/с) 
Видим.   Явления Облачность Т
(°С)
Тd
(°С)
f(%) Тe
(°С)
Pmin
(гПа)
dP
(гПа)
Po
(мм)
O2
(г/м3)
Тmin Tmax R s Состояние
почвы
00 16.01.22 270 (З) 20000 м    ясно 
-4.3 -6.3 86 -6  1014.6  0.8  751  308           
03 16.01.22 250 (З) 20000 м    ясно 
-5.4 -6.4 93 -5  1014.7  751  309  -5.6         
06 16.01.22 160 (Ю) 20000 м    6/6 600 м кучево-дожд. 
[Cb cap]
-6.7 -7.5 94 -6  1013.6  -1.1  750  311  -6.9      12  равномерный
сухой снег
100% 
09 16.01.22 200 (Ю) 20000 м    8/6 600 м кучево-дожд., верхняя 
[Cb cap|Ci fib]
-4 -5 93 -5  1012.3  -1.2  749  307           
12 16.01.22 230 (ЮЗ) 20000 м    10/10 600 м кучево-дожд. 
[Cb cap]
-0.4 -3.3 81 -3  1008.6  -3.4  747  302           
15 16.01.22 220 (ЮЗ) 20000 м    10/10 300 м кучево-дожд. 
[Cb cap]
+0.1 -2 86 -2  1005.3  -3.3  744  300           
18 16.01.22 210 (ЮЗ) 5-10{10}  4000 м  слаб. ливневой снег  10/10 300 м кучево-дожд. 
[Cb cap]
-0.3 -1.1 94 -3  1000.9  -4.3  741  299    +0.2  0.9     
21 16.01.22 230 (ЮЗ) 5{10}  2000 м  слаб. ливневой снег  10/10 300 м кучево-дожд. 
[Cb cap]
-0.6 -1.6 93 -4  996.9  -4  738  298           
00 17.01.22 220 (ЮЗ) 5{11}  4000 м  слаб. ливневой снег  10/10 300 м кучево-дожд. 
[Cb cap]
-1.1 -2.7 89 -4  992.4  -4.5  735  298           
03 17.01.22 200 (Ю) 4{11}  4000 м  слаб. ливневой снег  10/10 300 м кучево-дожд. 
[Cb cap]
-1.5 -2.2 95 -4  986.4  -5.9  730  296  -1.5       
06 17.01.22 200 (Ю) 4000 м  слаб. ливневой снег  10/10 300 м кучево-дожд. 
[Cb cap]
-0.3 -1 95 -2  981  -5.3  726  293  -1.5    20  равномерный
сухой снег
100% 
09 17.01.22 220 (ЮЗ) 4000 м  слаб. ливневой снег [диам. отлож. мокр. снега 2 мм]  10/10 200 м кучево-дожд. 
[Cb cap]
+0.2 -0.4 96 -2  978.6  -2.3  725  292           
12 17.01.22 310 (СЗ) 3{10}  20000 м  {ливн. осадки} [диам. отлож. мокр. снега 2 мм]  9/9 600 м кучево-дожд. 
[Cb cap]
+0.2 -1.7 87 -2  981.6  2.9  727  293           
15 17.01.22 340 (С) 4000 м  слаб. ливневой снег  10/10 300 м кучево-дожд. 
[Cb cap]
+0.2 -1.6 88 -3  987.3  5.6  731  294         
18 17.01.22 340 (С) 7-14{14}  10 км  позёмок{ливн. осадки}  9/9 600 м кучево-дожд. 
[Cb cap]
-2.9 -8.3 66 -7  996  8.5  737  301    +0.3     
21 17.01.22 330 (СЗ) 5-11{15}  20000 м  {ливн. осадки}  ясно 
-4.8 -9.3 71 -9  1001.3  5.1  741  305           
00 18.01.22 330 (СЗ) 5-10{15}  20000 м  {ливн. осадки}  4/0 средняя 
[Ac cuf]
-4.4 -8.9 71 -8  1005.3  3.9  744  306           
03 18.01.22 330 (СЗ) 5-11{12}  20000 м    3/3 1000 м 
[Cu hum]
-4.4 -8.7 72 -8  1009  3.7  747  307  -4.9    0.9     
06 18.01.22 330 (СЗ) 3{12}  20000 м    ясно 
-5.7 -10 72 -8  1012.8  3.7  750  309  -5.8    0.0  21  равномерный
сухой снег
100% 
09 18.01.22 330 (СЗ) 20000 м    3/3 600 м верхняя 
[Cu hum|Ci fib]
-4 -8.7 70 -7  1017  4.3  753  309           
12 18.01.22 320 (СЗ) 3{12}  50000 м    9/0 верхняя 
[Ci fib]
-3.4 -8.6 67 -6  1019.9  2.8  755  309           
15 18.01.22 310 (СЗ) 20000 м    9/0 верхняя 
[Ci fib]
-5.4 -8.8 77 -7  1021.8  1.8  756  312           
18 18.01.22 260 (З) 20000 м    1/0 верхняя 
[Ci fib]
-8.3 -9.6 90 -8  1022.8  0.8  757  316    -3.1       
21 18.01.22 170 (Ю) 20000 м    10/10 600 м 
[Sc]
-7.8 -9.4 88 -9  1021.7  -1  756  315           
00 19.01.22 170 (Ю) 20000 м    10/10 600 м 
[Sc]
-5.7 -7.5 87 -7  1019.2  -2.4  754  311           
Время (UTC), дата Ветер
(°,м/с) 
Видим.   Явления Облачность Т
(°С)
Тd
(°С)
f(%) Тe
(°С)
Pmin
(гПа)
dP
(гПа)
Po
(мм)
O2
(г/м3)
Тmin Tmax R s Состояние
почвы

Для получения пояснительной информации подведите курсор к названию столбца.

ПОГОДА Пушкинские Горы - архив

Всё, что Вы хотите узнать о погоде Пушкинские Горы - удобно и подробно!

Выберите нужную дату (начиная с 1 января 2019* года) и нажмите кнопку "Найти".
Будут отображены архивные сводки погоды по пункту Пушкинские Горы, начиная с указанной даты.


Отображать данные в формате CSV (для использования в таблицах Excel)


Внимание! Наш архив погоды предназначен исключительно для личного некоммерческого использования в познавательных целях. Если Вам необходимы официальные справки о состоянии погоды (для производственных, юридических, коммерческих и т.п. целей), обращайтесь в органы Росгидромета.

*Примечание: данная дата относится к архиву по метеостанциям СССР (Россия, СНГ, Балтия).
Архив по метеостанциям Зарубежной Европы и Азии (кроме Китая) хранится 10 дней, по другим регионам земного шара (Китай, Африка, Америка, Австралия, Океания) - 1 день.

Пушкинские Горы - район местоположения метеостанции


Название, широта, долгота, высота метеостанции:
Пушкинские Горы 57°ш. 28.9°д. 108 м над ур. моря [Российская Федерация]

Дополнительная информация

В oтличие oт бoльшинства пoгoдных сайтoв мы публикуем пoдрoбную метеoинфoрмацию в детальнoм прoфессиoнальнoм фoрмате.

Характеристики температуры и влажнoсти вoздуха измеряются на высoте 2 м в тени вдали oт зданий и деревьев.
Скoрoсть ветра измеряется на высoте 10 м (на урoвне рoста челoвека скoрoсть ветра ниже в 1.5-2 раза). Если метеoстанция нахoдится в гoрoде или в лесу, тo скoрoсть ветра занижена на 2-4 м/с пo сравнению с oткрытым местoм. Скoрoсть ветра над акватoриями крупных рек и oзёр, а также на вершинах хoлмoв на 2-5 м/с выше, чем в oбычных услoвиях.
Атмoсфернoе давление в разных тoчках местнoсти мoжет значительнo oтличаться oт давления на метеoстанции, в зависимoсти oт услoвий рельефа (при пoдъёме на 10 м давление пoнижается примернo на 1 мм рт.ст.).